Regional Weather Roundup
Issued by NWS

Home | Current Version | Previous Version | Graphics & Text | Print | Product List | Glossary On
Versions: 1 2 3 4 5 6 7 8 9 10 11 12 13 14 15 16 17 18 19 20 21 22 23 24 25 26 27 28 29 30 31 32 33 34 35 36 37 38 39 40 41 42 43 44 45 46 47 48 49 50
000
ASUS45 KSLC 270510
RWRUT

UTAH REGIONAL WEATHER ROUNDUP
NATIONAL WEATHER SERVICE SALT LAKE CITY UT
1100 PM MDT FRI MAY 26 2017

UTZ001>011-023>025-270600-

NORTHERN UTAH

CITY           SKY/WX    TMP DP  RH WIND       PRES   REMARKS
BRIGHAM CITY   CLEAR     50  36  58 N3        30.06R
HILL AFB       CLEAR     50  36  59 N6        30.05R
LOGAN          PTCLDY    45  38  76 NW7       30.07R
OGDEN          CLEAR     50  37  61 NW10      30.04R
SALT LAKE CITY PTCLDY    54  42  64 N9        30.03R
TOOELE VALLEY  PTCLDY    52  41  66 N8        30.05R
WENDOVER       CLEAR     59  33  37 N10G24    30.06R
HEBER CITY     MOCLDY    46  32  57 CALM      30.03R

$$

UTZ011>015-024>027-270600-

CENTRAL/NORTHEAST UTAH

CITY           SKY/WX    TMP DP  RH WIND       PRES   REMARKS
PROVO AIRPORT  CLOUDY    58  39  49 NW20      30.03R
MOAB/CANYONLAN PTCLDY    69  30  23 NW17      29.84R
DELTA          CLOUDY    55  32  41 N13       30.05R
PRICE          PTCLDY    55  31  39 NW8       29.98R
ROOSEVELT      CLEAR     54  30  40 SW8       29.98R
VERNAL         CLOUDY    59  35  40 E5        29.96R

$$

UTZ013>016-019>022-027-270600-

SOUTHERN UTAH

CITY           SKY/WX    TMP DP  RH WIND       PRES   REMARKS
BRYCE CANYON   CLEAR     53  21  28 W14       30.08R
CEDAR CITY     MOCLDY    60  33  36 NE12      30.00R
MILFORD        CLOUDY    61  33  35 N10       30.02R
ST GEORGE      MOCLDY    78  22  12 S6        29.84R
HANKSVILLE     CLEAR     68  32  26 W12       29.91R
BLANDING       CLEAR     61  18  18 W5        30.02R

$$

REGIONAL REPORTS     COLORADO/ARIZONA

CITY           SKY/WX    TMP DP  RH WIND       PRES   REMARKS
CRAIG, CO      LGT RAIN  47  39  74 W10       30.09R
GRAND JUNCTION CLOUDY    70  26  19 NW14      29.85R
RIFLE, CO      CLOUDY    63  36  36 NW17G31   29.96R
MONTROSE, CO   CLEAR     58  19  22 SE12      29.95R
CORTEZ, CO     CLEAR     56  25  30 S10       29.98R
COLORADO CITY    N/A     61  23  23 S9        29.99R
PAGE, AZ       CLEAR     75  18  11 SW9       29.89R
GRAND CANYON   CLEAR     51  25  36 SW9       30.10R
KINGMAN, AZ    CLEAR     65  23  20 SE8       29.93R
FLAGSTAFF, AZ  CLEAR     47  19  33 CALM      30.14R

$$

REGIONAL REPORTS    NEVADA/IDAHO/WYOMING

CITY           SKY/WX    TMP DP  RH WIND       PRES   REMARKS
LAS VEGAS, NV  CLEAR     82  19   9 SW14G21   29.77R
ELY, NY        CLOUDY    53  26  35 N20       30.09R
ELKO, NV       CLEAR     50  29  44 CALM      30.09R
POCATELLO, ID  CLOUDY    45  42  89 E3        30.11R
BURLEY, ID     CLEAR     45  42  89 CALM      30.09R
EVANSTON, WY   CLEAR     40  31  70 W13       30.08R WCI  32
ROCK SPRINGS,  CLOUDY    41  36  82 SE5       30.08R
KEMMERER, WY     N/A     37  32  81 CALM      30.08R

$$



USA.gov is the U.S. government's official web portal to all federal, state and local government web resources and services.